COSMOS 1275 DEB, 12695

Orbit data source: Space-Track

COSMOS 1275 DEB, 12695 is space debris in LEO originally from a launch on Thu, 04 Jun 1981 UTC launched from the Plesetsk Missile And Space Complex (PKMTR). Debris objects in space refer to the collection of defunct objects orbiting the Earth. Examples of debris include non-operational satellites, rocket bodies, and fragments generated from explosions, collisions, or faulty payload assembly.

Loading next visibility...
Identifier
12695, 1981-053AP
Orbit
LEO
Last TLE update
20 hours ago
Origin
Manufacturer
Unknown
Mission
Spacecraft
Bus & Motor
Unknown
Mass
Unknown
Launch date (UTC)
1981-06-04 (44 years ago)
Launch vehicle
Unknown
Launch site
Plesetsk Missile And Space Complex (PKMTR)
Object type
Payload
Rocket body
Debris
Shape & HBR
Unknown
Radar Cross Section
Small (<0.1 m²)

Expand to show TLE details & history

TLE from 20 hours ago
0 COSMOS 1275 DEB
1 12695U 81053AP  25187.98166095  .00000838  00000-0  84787-3 0  9993
2 12695  83.0105 154.7701 0102946 277.4053 152.8771 13.73861101181661
Epoch: 2025-07-06T23:33Z
TLE epoch observation values (Epoch: 2025-07-06T23:33:35.506Z)
Latitude
69.69977°
Longitude
-104.5735°
Altitude
1,065.445 km
Speed
7.292 km/s
True Right ascension
11h 36m 05s
True Declination
69° 35' 32"
Sunlit
Object was in daylight at epoch
Visualization orbit readout
Latitude
43.10019°
Longitude
49.02422°
Altitude
1,048.584 km
Speed
7.303 km/s
Apparent Right ascension
20h 34m 40s
Apparent Declination
5° 46' 23"
Sunlit
Object is in daylight
Visualization observer readout
Local Sidereal Time
07:10:16
Azimuth
331.969° NNW
Elevation
-40.345°
Doppler factor
1
Orbital elements
Apogee altitude
1,058.668 km
Perigee altitude
907.11 km
Semi-major axis
7,361.026 km
Eccentricity
0.01029
Inclination
83.0105°
RAAN
154.7701°
Arg. of periapsis
277.4053°
True anomaly
Unknown
Mean anomaly
152.8771°
Eccentric anomaly
Unknown
Mean motion
3.43665 °/min
Orbital period
104.75 mins
BSTAR
0.00084787
Loading maneuver chart data...
Loading SW <> Apogee altitude chart data...
Loading historical data...
Loading historical data...
Loading historical data...
Loading historical data...
Loading historical data...
Loading historical data...
Loading historical data...

COSMOS 1275 DEB Visibility forecast

Observer location: undefined°, undefined°

Span
Click to sort rows by Start time (UTC) header in descending order
Start Az.
Max El. time (UTC)
Max El. Az.
Max El.
End time (UTC)
End Az.
12 mins2025-07-07 22:01:44.443Z166.705° S2025-07-07 22:07:44.443Z94.28° ESE39.439°2025-07-07 22:13:44.443Z16.812° NNE
8 mins2025-07-07 23:50:44.443Z253.25° W2025-07-07 23:53:44.443Z288.785° WNW21.574°2025-07-07 23:58:44.443Z339.824° N
10 mins2025-07-08 09:01:44.443Z12.152° NNE2025-07-08 09:06:44.443Z88.908° E35.312°2025-07-08 09:11:44.443Z147.121° SSE
9 mins2025-07-08 10:47:44.443Z320.489° NNW2025-07-08 10:51:44.443Z272.192° WNW24.893°2025-07-08 10:56:44.443Z220.304° SW
|